Location: Unspecified
(38.6830°S, 0.0000°E)
Time: 21:34:01
(UTC+00:00)

Envisat - Pass Details

Date: 03 June 2019
Orbit: 764 x 766 km, 98.1° (Epoch: 19 June)

Event Time Altitude Azimuth Distance (km) Brightness Sun altitude
Exits shadow 19:55:15 20° 319° (NW) 1,724 5.1 -36.2°
Drops below altitude 10° 19:56:51 10° 326° (NW) 2,309 5.8 -36.5°
Sets 19:59:11 0° 331° (NNW) 3,227 6.6 -37.0°
